TimePDT,TemperatureF,Dew PointF,Humidity,Sea Level PressureIn,VisibilityMPH,Wind Direction,Wind SpeedMPH,Gust SpeedMPH,PrecipitationIn,Events,Conditions,WindDirDegrees,DateUTC
12:56 AM,60.1,57.9,93,29.91,10.0,SE,3.5,-,0.00,,Overcast,130,2013-09-16 07:56:00
1:56 AM,61.0,57.0,87,29.91,10.0,Variable,3.5,-,N/A,,Overcast,0,2013-09-16 08:56:00
2:56 AM,60.1,55.9,86,29.92,10.0,South,8.1,-,N/A,,Mostly Cloudy,180,2013-09-16 09:56:00
3:56 AM,59.0,55.9,90,29.93,10.0,South,8.1,-,N/A,,Overcast,170,2013-09-16 10:56:00
4:56 AM,59.0,55.0,87,29.94,10.0,SSE,5.8,-,N/A,,Overcast,160,2013-09-16 11:56:00
5:56 AM,60.1,55.0,83,29.95,10.0,South,5.8,-,N/A,,Overcast,170,2013-09-16 12:56:00
6:56 AM,59.0,55.0,87,29.95,10.0,SSE,8.1,-,N/A,,Overcast,150,2013-09-16 13:56:00
7:56 AM,60.1,55.0,83,29.96,10.0,South,5.8,-,N/A,,Overcast,170,2013-09-16 14:56:00
8:56 AM,64.0,55.0,73,29.97,10.0,South,8.1,-,N/A,,Overcast,190,2013-09-16 15:56:00
9:56 AM,64.9,55.0,70,29.97,10.0,South,10.4,-,N/A,,Scattered Clouds,180,2013-09-16 16:56:00
10:27 AM,66.2,55.4,68,29.98,10.0,SSW,9.2,-,N/A,,Overcast,210,2013-09-16 17:27:00
10:56 AM,68.0,55.0,63,29.97,10.0,South,10.4,-,N/A,,Overcast,180,2013-09-16 17:56:00
11:06 AM,66.2,55.4,68,29.98,10.0,South,8.1,-,N/A,,Overcast,190,2013-09-16 18:06:00
11:56 AM,68.0,55.0,63,29.98,10.0,SSW,8.1,-,N/A,,Overcast,200,2013-09-16 18:56:00
12:56 PM,69.1,55.0,61,29.98,10.0,SSW,12.7,-,N/A,,Overcast,210,2013-09-16 19:56:00
1:56 PM,71.1,55.0,57,29.96,10.0,South,10.4,-,N/A,,Overcast,190,2013-09-16 20:56:00
2:56 PM,72.0,54.0,53,29.95,10.0,South,5.8,-,N/A,,Overcast,180,2013-09-16 21:56:00
3:56 PM,70.0,55.0,59,29.94,10.0,SE,3.5,-,0.00,,Overcast,130,2013-09-16 22:56:00
4:56 PM,70.0,57.0,63,29.93,10.0,NW,11.5,-,N/A,,Overcast,320,2013-09-16 23:56:00
5:56 PM,68.0,57.0,68,29.92,10.0,NW,6.9,-,N/A,,Overcast,320,2013-09-17 00:56:00
6:56 PM,66.9,57.0,70,29.92,10.0,NNW,5.8,-,N/A,,Overcast,330,2013-09-17 01:56:00
7:56 PM,64.9,57.0,75,29.91,10.0,NW,4.6,-,N/A,,Mostly Cloudy,310,2013-09-17 02:56:00
8:56 PM,64.0,57.0,78,29.91,10.0,West,4.6,-,N/A,,Overcast,280,2013-09-17 03:56:00
9:56 PM,64.0,57.0,78,29.91,10.0,North,4.6,-,N/A,,Overcast,360,2013-09-17 04:56:00
10:56 PM,63.0,57.0,81,29.91,10.0,NW,4.6,-,N/A,,Overcast,320,2013-09-17 05:56:00
11:56 PM,62.1,57.0,84,29.90,10.0,NW,5.8,-,N/A,,Scattered Clouds,320,2013-09-17 06:56:00